sat.trackr.live / text

‹ back to catalog

STARLINK-30371

NORAD 57735 · 2023-131D

PAYLOAD ACTIVE UNKNOWN

§ Identity

Operator
Country
US
Launch date
2023-09-01
Launch site
AFETR
Launch vehicle
Mass (kg)
RCS (m²)

Purposes: comms

External: N2YO · Heavens-Above · Gunter

§ Orbital elements

Epoch: 2026-05-24T07:09:13.565088Z

Period
94.32 min
Inclination
43.0058°
Eccentricity
0.0001165
Mean motion
15.26734096 rev/d
Perigee alt
484.8 km
Apogee alt
486.4 km
Semi-major
6,863.7 km
B*
7.9552e-5
RAAN
112.7862°
Arg perigee
272.7167°
Mean anomaly
87.3551°
Rev number
15,139

§ Raw data

STARLINK-303711 57735U 23131D   26144.29807367  .00001874  00000+0  79552-4 0  99972 57735  43.0058 112.7862 0001165 272.7167  87.3551 15.26734096151392

JSON: /api/v1/satellites/57735 · /tle

For live sub-satellite position, see the globe view (requires WebGL).

§ Visibility from observer

Set your observer location to see the next 7 days of passes ≥ 10°. The values pass through the URL so the page stays shareable.

No JS? Fill the form by hand. The geolocation button needs JavaScript.